Hourly Data Report for June 23, 2017

FISHER BRANCH (AUT)
MANITOBA

51°05'00.100" N
97°33'16.200" W
253.00 m
50309J6
71442
WSZ

Download Data

Hourly Data (June 2017)
Hourly Data Report for June 23, 2017
TIME
LST
Temp Definition
°C
Dew Point Definition
°C
Rel Hum Definition
%
Precip. Amount Definition
mm

Wind Dir Definition
10's deg

Wind Spd Definition
km/h
Visibility Definition
km
Stn Press Definition
kPa
Hmdx Definition


Wind Chill Definition


Weather Definition


00:00 11.4 9.7 89 0.0 29 12   97.29     LegendNANA
01:00 11.4 9.8 90 0.0 28 11   97.31     LegendNANA
02:00 12.8 11.3 91 0.0 29 17   97.37     LegendNANA
03:00 14.0 11.8 87 0.0 32 20   97.42     LegendNANA
04:00 13.7 11.5 87 0.0 30 17   97.49     LegendNANA
05:00 13.1 10.9 86 0.0 30 23   97.59     LegendNANA
06:00 12.7 10.3 85 0.0 30 19   97.67     LegendNANA
07:00 11.9 10.1 89 0.0 29 28   97.74     LegendNANA
08:00 12.0 10.1 89 0.0 30 26   97.80     LegendNANA
09:00 11.7 9.7 87 0.0 30 24   97.86     LegendNANA
10:00 11.2 9.8 91 0.2 30 19   97.91     LegendNANA
11:00 12.2 10.0 87 0.6 30 20   97.96     LegendNANA
12:00 11.9 9.3 84 0.0 30 23   98.00     LegendNANA
13:00 12.5 8.7 78 0.0 30 29   98.02     LegendNANA
14:00 13.5 9.1 75 0.0 30 24   98.05     LegendNANA
15:00 14.3 9.1 71 0.0 29 24   98.06     LegendNANA
16:00 13.0 9.6 80 0.0 31 23   98.10     LegendNANA
17:00 13.9 9.6 75 0.0 32 17   98.14     LegendNANA
18:00 12.2 9.5 84 0.0 32 26   98.19     LegendNANA
19:00 12.7 9.3 79 0.0 33 17   98.23     LegendNANA
20:00 11.6 9.1 85 0.0 33 13   98.26     LegendNANA
21:00 10.3 8.0 86 0.0 32 11   98.26     LegendNANA
22:00 9.2 7.0 86 0.0 30 9   98.28     LegendNANA
23:00 9.6 7.5 87 0.0 29 11   98.27     LegendNANA

Notes on Data Quality.

Legend

  • E = Estimated
  • M = Missing
  • NA = Not Available*
  • [empty] = Indicates an unobserved value
Date modified: